sat.trackr.live / text

‹ back to catalog

STARLINK-5231

NORAD 54182 · 2022-141AB

PAYLOAD ACTIVE UNKNOWN

§ Identity

Operator
Country
US
Launch date
2022-10-28
Launch site
AFWTR
Launch vehicle
Mass (kg)
RCS (m²)

Purposes: comms

External: N2YO · Heavens-Above · Gunter

§ Orbital elements

Epoch: 2026-05-24T23:51:40.908672Z

Period
95.44 min
Inclination
53.2136°
Eccentricity
0.0001454
Mean motion
15.08838060 rev/d
Perigee alt
538.7 km
Apogee alt
540.8 km
Semi-major
6,917.9 km
B*
3.5688e-5
RAAN
351.2074°
Arg perigee
100.4037°
Mean anomaly
259.7119°
Rev number
19,780

§ Raw data

STARLINK-52311 54182U 22141AB  26144.99422348  .00000280  00000+0  35688-4 0  99912 54182  53.2136 351.2074 0001454 100.4037 259.7119 15.08838060197801

JSON: /api/v1/satellites/54182 · /tle

For live sub-satellite position, see the globe view (requires WebGL).

§ Visibility from observer

Set your observer location to see the next 7 days of passes ≥ 10°. The values pass through the URL so the page stays shareable.

No JS? Fill the form by hand. The geolocation button needs JavaScript.